Location: White Mills Observatory
(37.5374°N, 86.0303°W)
Time: 08:13:26
(UTC-05:00)

HST - Visible Passes

Search period start: 23 November 2014 00:00
Search period end: 03 December 2014 00:00
Orbit: 545 x 550 km, 28.5° (Epoch: 21 November)

Date Brightness Start Highest point End Pass type
(mag) Time Alt. Az. Time Alt. Az. Time Alt. Az.
23 Nov 2.9 06:06:26 11° SW 06:09:28 21° S 06:12:37 10° ESE visible
24 Nov 2.7 05:59:35 15° SW 06:01:51 22° S 06:05:08 10° ESE visible
25 Nov 2.6 05:52:39 19° SSW 05:54:15 23° S 05:57:35 10° SE visible
26 Nov 2.5 05:45:40 21° SSW 05:46:38 23° S 05:49:59 10° SE visible
27 Nov 2.5 05:38:39 23° SSW 05:39:00 23° S 05:42:20 10° SE visible
28 Nov 2.6 05:31:36 22° S 05:31:36 22° S 05:34:37 10° SE visible
29 Nov 2.9 05:24:32 19° S 05:24:32 19° S 05:26:50 10° SE visible
30 Nov 3.2 05:17:28 16° SSE 05:17:28 16° SSE 05:18:58 10° SSE visible
01 Dec 3.5 05:10:24 12° SSE 05:10:24 12° SSE 05:10:58 10° SSE visible
